Orbital Elements at Epoch 2459200.5 (2020-Dec-17.0) TDB
Reference: JPL 20 (heliocentric ecliptic J2000)
Element | Value | Uncertainty (1-sigma) | Units |
e | .1852031714491182 | 4.1112e-08 | |
a | 2.423541869249866 | 8.0181e-09 | au |
q | 1.974694228925066 | 1.0104e-07 | au |
i | 3.077975009133495 | 3.1561e-06 | deg |
node | 49.40116623422372 | 8.3565e-05 | deg |
peri | 268.0941013457495 | 8.421e-05 | deg |
M | 33.19066339889674 | 8.6906e-06 | deg |
tp | 2459073.446202668135 (2020-Aug-11.94620267) | 3.3452e-05 | TDB |
period | 1378.07932579593 3.77 | 6.8389e-06 1.872e-08 | d yr |
n | .2612331476579381 | 1.2964e-09 | deg/d |
Q | 2.872389509574665 | 9.5031e-09 | au |
|
| | Orbit Determination Parameters
Additional Information
|